TimeEDT,TemperatureF,Dew PointF,Humidity,Sea Level PressureIn,VisibilityMPH,Wind Direction,Wind SpeedMPH,Gust SpeedMPH,PrecipitationIn,Events,Conditions,WindDirDegrees,DateUTC
12:15 AM,66.4,65.8,98,29.88,7.0,NNW,5.8,-,N/A,,Clear,340,2013-08-28 04:15:00
12:35 AM,66.2,65.8,99,29.88,10.0,NNW,3.5,-,N/A,,Clear,340,2013-08-28 04:35:00
1:15 AM,66.0,65.5,98,29.87,10.0,North,4.6,-,N/A,,Clear,350,2013-08-28 05:15:00
1:36 AM,65.7,65.1,98,29.87,10.0,North,3.5,-,N/A,,Clear,360,2013-08-28 05:36:00
1:55 AM,66.0,65.5,98,29.88,10.0,North,3.5,-,N/A,,Clear,10,2013-08-28 05:55:00
2:15 AM,65.8,65.3,98,29.88,5.0,NNE,3.5,-,N/A,,Clear,20,2013-08-28 06:15:00
2:55 AM,65.7,65.3,99,29.88,1.5,NNE,3.5,-,N/A,,Mist,20,2013-08-28 06:55:00
3:16 AM,65.7,65.5,99,29.89,2.5,NNE,3.5,-,N/A,,Clear,20,2013-08-28 07:16:00
3:35 AM,65.7,65.5,99,29.88,1.5,NNE,3.5,-,N/A,,Mist,20,2013-08-28 07:35:00
3:55 AM,65.5,65.3,99,29.89,1.5,NNE,3.5,-,N/A,,Mist,20,2013-08-28 07:55:00
4:16 AM,65.5,65.3,99,29.89,1.8,NNE,4.6,-,N/A,,Mist,30,2013-08-28 08:16:00
4:35 AM,65.1,64.9,99,29.89,2.5,NNE,4.6,-,N/A,,Clear,20,2013-08-28 08:35:00
4:55 AM,64.8,64.6,99,29.90,3.0,North,5.8,-,N/A,,Scattered Clouds,10,2013-08-28 08:55:00
5:16 AM,64.4,64.2,99,29.90,4.0,North,5.8,-,N/A,,Clear,10,2013-08-28 09:16:00
5:35 AM,63.7,63.5,99,29.91,2.5,North,6.9,-,N/A,,Clear,10,2013-08-28 09:35:00
5:55 AM,64.6,64.4,99,29.90,4.0,NNE,5.8,-,N/A,,Clear,20,2013-08-28 09:55:00
6:15 AM,64.6,64.4,99,29.92,3.0,North,4.6,-,N/A,,Clear,10,2013-08-28 10:15:00
6:35 AM,64.8,64.6,99,29.92,4.0,North,5.8,-,N/A,,Clear,10,2013-08-28 10:35:00
6:55 AM,65.1,64.9,99,29.93,5.0,NNE,5.8,-,N/A,,Clear,20,2013-08-28 10:55:00
7:15 AM,64.9,64.6,99,29.94,4.0,NNE,4.6,-,N/A,,Clear,20,2013-08-28 11:15:00
7:35 AM,64.8,64.4,99,29.95,2.5,NNE,4.6,-,N/A,,Clear,20,2013-08-28 11:35:00
7:55 AM,65.1,64.6,98,29.95,2.5,North,4.6,-,N/A,,Clear,350,2013-08-28 11:55:00
8:15 AM,65.8,65.5,99,29.96,4.0,North,3.5,-,N/A,,Scattered Clouds,10,2013-08-28 12:15:00
8:35 AM,66.2,65.5,98,29.97,4.0,Calm,Calm,-,N/A,,Overcast,0,2013-08-28 12:35:00
8:55 AM,65.3,64.8,98,29.96,0.5,North,3.5,-,N/A,Fog,Fog,350,2013-08-28 12:55:00
9:15 AM,65.7,65.3,99,29.96,0.5,North,4.6,-,N/A,Fog,Fog,350,2013-08-28 13:15:00
9:35 AM,65.3,64.8,98,29.97,0.5,North,3.5,-,N/A,Fog,Fog,350,2013-08-28 13:35:00
9:55 AM,66.4,66.0,99,29.96,2.5,NNE,3.5,-,N/A,,Overcast,20,2013-08-28 13:55:00
10:15 AM,66.4,65.7,98,29.97,1.2,Calm,Calm,-,N/A,,Overcast,0,2013-08-28 14:15:00
10:35 AM,68.5,66.6,93,29.97,10.0,Calm,Calm,-,N/A,,Scattered Clouds,0,2013-08-28 14:35:00
10:56 AM,71.1,67.3,88,29.97,10.0,Calm,Calm,-,N/A,,Clear,0,2013-08-28 14:56:00
11:15 AM,71.8,67.3,86,29.98,10.0,Calm,Calm,-,N/A,,Clear,0,2013-08-28 15:15:00
11:35 AM,73.8,68.0,82,29.98,10.0,NE,3.5,-,N/A,,Clear,40,2013-08-28 15:35:00
11:55 AM,75.2,68.4,79,29.99,10.0,Calm,Calm,-,N/A,,Clear,0,2013-08-28 15:55:00
12:15 PM,76.5,69.1,78,29.99,10.0,Calm,Calm,-,N/A,,Clear,0,2013-08-28 16:15:00
12:36 PM,77.0,69.3,77,30.00,10.0,Calm,Calm,-,N/A,,Clear,0,2013-08-28 16:36:00
12:55 PM,79.0,68.9,71,30.00,10.0,NNE,4.6,-,N/A,,Clear,20,2013-08-28 16:55:00
1:15 PM,79.2,67.8,68,30.00,10.0,NE,3.5,-,N/A,,Clear,40,2013-08-28 17:15:00
1:36 PM,80.2,68.5,67,30.00,10.0,Calm,Calm,-,N/A,,Clear,0,2013-08-28 17:36:00
2:15 PM,82.6,68.7,63,30.00,10.0,Calm,Calm,-,N/A,,Clear,0,2013-08-28 18:15:00
2:35 PM,80.1,68.7,68,30.00,10.0,Calm,Calm,-,N/A,,Clear,0,2013-08-28 18:35:00
2:55 PM,81.3,68.7,65,30.00,10.0,SSW,3.5,-,N/A,,Clear,210,2013-08-28 18:55:00
3:15 PM,82.4,68.7,63,29.99,10.0,South,3.5,-,N/A,,Clear,170,2013-08-28 19:15:00
3:35 PM,81.1,68.7,66,29.99,10.0,South,5.8,-,N/A,,Clear,180,2013-08-28 19:35:00
3:55 PM,82.0,67.8,62,29.98,10.0,South,3.5,-,N/A,,Clear,190,2013-08-28 19:55:00
4:15 PM,79.3,68.9,70,29.98,10.0,SSW,4.6,-,N/A,,Clear,200,2013-08-28 20:15:00
4:35 PM,80.1,68.5,68,29.99,10.0,Calm,Calm,-,N/A,,Scattered Clouds,0,2013-08-28 20:35:00
4:55 PM,81.3,68.0,64,29.99,10.0,Calm,Calm,-,N/A,,Scattered Clouds,0,2013-08-28 20:55:00
5:15 PM,81.7,66.2,59,30.00,10.0,SSW,3.5,-,N/A,,Clear,210,2013-08-28 21:15:00
5:35 PM,81.3,67.3,62,30.00,10.0,Calm,Calm,-,N/A,,Scattered Clouds,0,2013-08-28 21:35:00
5:55 PM,81.5,65.7,58,30.00,10.0,Calm,Calm,-,N/A,,Mostly Cloudy,0,2013-08-28 21:55:00
6:15 PM,79.7,66.7,64,30.00,10.0,Calm,Calm,-,N/A,,Mostly Cloudy,0,2013-08-28 22:15:00
6:35 PM,81.7,67.3,61,30.00,10.0,Calm,Calm,-,N/A,,Mostly Cloudy,0,2013-08-28 22:35:00
6:55 PM,81.1,68.2,65,30.00,10.0,NW,3.5,-,N/A,,Scattered Clouds,310,2013-08-28 22:55:00
7:15 PM,79.5,68.5,69,30.01,10.0,NW,4.6,-,N/A,,Clear,320,2013-08-28 23:15:00
7:35 PM,78.3,67.6,70,30.01,10.0,North,3.5,-,N/A,,Clear,360,2013-08-28 23:35:00
7:55 PM,77.2,66.7,70,30.02,10.0,NNE,5.8,-,N/A,,Clear,20,2013-08-28 23:55:00
8:15 PM,76.1,64.9,68,30.02,10.0,NNE,4.6,-,N/A,,Clear,30,2013-08-29 00:15:00
8:35 PM,75.0,64.6,70,30.02,10.0,NNE,8.1,-,N/A,,Clear,30,2013-08-29 00:35:00
8:55 PM,74.1,64.4,72,30.03,10.0,NE,5.8,-,N/A,,Clear,40,2013-08-29 00:55:00
9:15 PM,71.8,64.4,77,30.03,10.0,NNE,5.8,-,N/A,,Clear,20,2013-08-29 01:15:00
9:35 PM,70.7,64.8,81,30.04,10.0,NNE,4.6,-,N/A,,Clear,30,2013-08-29 01:35:00
9:55 PM,70.5,64.9,82,30.04,10.0,North,4.6,-,N/A,,Clear,10,2013-08-29 01:55:00
10:15 PM,68.9,64.8,87,30.05,10.0,North,4.6,-,N/A,,Clear,350,2013-08-29 02:15:00
10:35 PM,68.9,64.9,87,30.05,10.0,NNW,5.8,-,N/A,,Clear,330,2013-08-29 02:35:00
10:55 PM,69.1,65.3,88,30.05,10.0,NW,6.9,-,N/A,,Clear,320,2013-08-29 02:55:00
11:16 PM,69.6,65.5,87,30.05,10.0,NW,8.1,-,N/A,,Clear,310,2013-08-29 03:16:00
11:35 PM,68.4,65.8,92,30.04,10.0,NW,6.9,-,N/A,,Clear,320,2013-08-29 03:35:00
11:55 PM,68.0,65.5,92,30.04,10.0,NNW,6.9,-,N/A,,Clear,340,2013-08-29 03:55:00